Weather History for Sterling, IL

Change the Weather History Date:

Wednesday, October 10, 2012

  Actual Average Record
Temperature  
Mean Temperature 44 °F -  
Max Temperature 55 °F 63 °F 86 °F (2010)
Min Temperature 32 °F 41 °F 28 °F (2000)
Degree Days  
Heating Degree Days 22    
Moisture  
Dew Point 30 °F    
Average Humidity 64    
Maximum Humidity 87    
Minimum Humidity 35    
Precipitation  
Precipitation 0.00 in - - ()
Sea Level Pressure  
Sea Level Pressure 30.11 in    
Wind  
Wind Speed 11 mph (West)    
Max Wind Speed 22 mph    
Max Gust Speed 30 mph    
Visibility 10 miles    
Events      
Averages and records for this station are not official NWS values.
T = Trace of Precipitation, MM = Missing Value Source: NWS Daily Summary

Daily Weather History Graph

Daily Weather History Graph

Search for Another Location

Airport:

Trip Planner

Search our weather history database for the weather conditions in past years. The results will help you decide how hot, cold, wet, or windy it might be!

Date:

Astronomy

Oct. 10, 2012 Rise Set
Actual Time 7:05 AM CDT 6:24 PM CDT
Civil Twilight 6:37 AM CDT 6:52 PM CDT
Nautical Twilight 6:05 AM CDT 7:24 PM CDT
Astronomical Twilight 5:33 AM CDT 7:56 PM CDT
Moon 1:37 AM CDT (10/10) 3:31 PM CDT (10/10)
Length of Visible Light 12h 14m
Length of Day
11h 18m
Waning Crescent, 27% of the Moon is Illuminated
Oct 10
Waning Crescent
Oct 15
New
Oct 21
First Quarter
Oct 29
Full
Nov 6
Last Quarter

Hourly Weather History & Observations

Time (CDT) Temp. Windchill Dew Point Humidity Pressure Visibility Wind Dir Wind Speed Gust Speed Precip Events Conditions
12:15 AM 42.8 °F 37.5 °F 37.4 °F 81% 29.96 in 10.0 mi West 9.2 mph - N/A   Clear
12:35 AM 42.8 °F 37.0 °F 37.4 °F 81% 29.96 in 10.0 mi West 10.4 mph - N/A   Clear
12:55 AM 42.8 °F 36.6 °F 35.6 °F 76% 29.97 in 10.0 mi WNW 11.5 mph - N/A   Clear
1:15 AM 41.0 °F 34.7 °F 35.6 °F 81% 29.97 in 10.0 mi WNW 10.4 mph - N/A   Clear
1:35 AM 39.2 °F 33.6 °F 33.8 °F 81% 29.98 in 10.0 mi WNW 8.1 mph - N/A   Clear
1:55 AM 39.2 °F 33.0 °F 33.8 °F 81% 29.99 in 10.0 mi WNW 9.2 mph - N/A   Clear
2:15 AM 39.2 °F 32.0 °F 33.8 °F 81% 29.99 in 10.0 mi WNW 11.5 mph - N/A   Clear
2:35 AM 37.4 °F 30.8 °F 32.0 °F 81% 30.00 in 10.0 mi West 9.2 mph - N/A   Clear
2:55 AM 37.4 °F 30.8 °F 32.0 °F 81% 30.00 in 10.0 mi West 9.2 mph - N/A   Clear
3:15 AM 35.6 °F 28.0 °F 32.0 °F 87% 30.00 in 10.0 mi West 10.4 mph - N/A   Clear
3:35 AM 35.6 °F 27.5 °F 30.2 °F 81% 30.01 in 10.0 mi West 11.5 mph - N/A   Clear
3:55 AM 35.6 °F 28.0 °F 30.2 °F 81% 30.01 in 10.0 mi West 10.4 mph - N/A   Clear
4:15 AM 35.6 °F 28.0 °F 30.2 °F 81% 30.01 in 10.0 mi West 10.4 mph - N/A   Clear
4:35 AM 35.6 °F 27.1 °F 30.2 °F 81% 30.02 in 10.0 mi West 12.7 mph - N/A   Clear
4:55 AM 35.6 °F 27.1 °F 30.2 °F 81% 30.03 in 10.0 mi West 12.7 mph - N/A   Clear
5:15 AM 35.6 °F 27.5 °F 28.4 °F 75% 30.04 in 10.0 mi West 11.5 mph - N/A   Clear
5:35 AM 33.8 °F 24.8 °F 28.4 °F 81% 30.05 in 10.0 mi West 12.7 mph - N/A   Clear
5:55 AM 33.8 °F 25.3 °F 28.4 °F 81% 30.06 in 10.0 mi West 11.5 mph - N/A   Clear
6:15 AM 33.8 °F 26.4 °F 28.4 °F 81% 30.07 in 10.0 mi West 9.2 mph - N/A   Mostly Cloudy
6:35 AM 33.8 °F 25.8 °F 28.4 °F 81% 30.07 in 10.0 mi West 10.4 mph - N/A   Scattered Clouds
6:55 AM 33.8 °F 25.3 °F 28.4 °F 81% 30.08 in 10.0 mi West 11.5 mph - N/A   Clear
7:15 AM 33.8 °F 25.3 °F 28.4 °F 81% 30.09 in 10.0 mi West 11.5 mph - N/A   Clear
7:35 AM 33.8 °F 24.8 °F 28.4 °F 81% 30.10 in 10.0 mi West 12.7 mph - N/A   Clear
7:55 AM 35.6 °F 26.6 °F 28.4 °F 75% 30.11 in 10.0 mi West 13.8 mph - N/A   Clear
8:35 AM 37.4 °F 28.5 °F 30.2 °F 75% 30.13 in 10.0 mi West 15.0 mph - N/A   Clear
8:55 AM 39.2 °F 31.2 °F 30.2 °F 70% 30.14 in 10.0 mi West 13.8 mph - N/A   Clear
9:15 AM 39.2 °F 30.8 °F 30.2 °F 70% 30.15 in 10.0 mi West 15.0 mph 19.6 mph N/A   Clear
9:35 AM 41.0 °F 32.8 °F 30.2 °F 65% 30.16 in 10.0 mi WNW 16.1 mph - N/A   Clear
9:55 AM 42.8 °F 35.8 °F 32.0 °F 66% 30.15 in 10.0 mi WNW 13.8 mph - N/A   Clear
10:15 AM 44.6 °F 38.1 °F 32.0 °F 61% 30.16 in 10.0 mi West 13.8 mph - N/A   Clear
10:35 AM 46.4 °F 40.1 °F 32.0 °F 57% 30.17 in 10.0 mi West 15.0 mph - N/A   Partly Cloudy
10:55 AM 46.4 °F 40.4 °F 32.0 °F 57% 30.17 in 10.0 mi West 13.8 mph 20.7 mph N/A   Partly Cloudy
11:15 AM 48.2 °F - 30.2 °F 50% 30.18 in 10.0 mi WNW 17.3 mph 21.9 mph N/A   Clear
11:55 AM 50.0 °F - 32.0 °F 50% 30.18 in 10.0 mi WNW 15.0 mph 19.6 mph N/A   Partly Cloudy
12:15 PM 51.8 °F - 32.0 °F 47% 30.17 in 10.0 mi West 19.6 mph 23.0 mph N/A   Partly Cloudy
12:35 PM 51.8 °F - 32.0 °F 47% 30.17 in 10.0 mi West 15.0 mph 21.9 mph N/A   Mostly Cloudy
12:55 PM 51.8 °F - 32.0 °F 47% 30.16 in 10.0 mi West 20.7 mph 25.3 mph N/A   Mostly Cloudy
1:15 PM 53.6 °F - 32.0 °F 44% 30.16 in 10.0 mi West 18.4 mph 24.2 mph N/A   Mostly Cloudy
1:35 PM - - - N/A% 30.15 in 10.0 mi West 20.7 mph 29.9 mph N/A   Overcast
1:55 PM 51.8 °F - 28.4 °F 41% 30.16 in 10.0 mi West 21.9 mph 26.5 mph N/A   Overcast
2:15 PM 51.8 °F - 30.2 °F 44% 30.15 in 10.0 mi West 13.8 mph - N/A   Mostly Cloudy
2:35 PM 51.8 °F - 30.2 °F 44% 30.15 in 10.0 mi West 13.8 mph 19.6 mph N/A   Mostly Cloudy
2:55 PM 55.4 °F - 30.2 °F 38% 30.15 in 10.0 mi West 21.9 mph 26.5 mph N/A   Mostly Cloudy
3:15 PM 55.4 °F - 30.2 °F 38% 30.14 in 10.0 mi West 19.6 mph - N/A   Mostly Cloudy
3:35 PM 55.4 °F - 30.2 °F 38% 30.14 in 10.0 mi WNW 17.3 mph - N/A   Mostly Cloudy
3:55 PM 55.4 °F - 28.4 °F 36% 30.13 in 10.0 mi West 13.8 mph 23.0 mph N/A   Scattered Clouds
4:15 PM 53.6 °F - 28.4 °F 38% 30.13 in 10.0 mi WNW 16.1 mph 21.9 mph N/A   Partly Cloudy
4:35 PM 53.6 °F - 26.6 °F 35% 30.13 in 10.0 mi WNW 15.0 mph 20.7 mph N/A   Clear
4:55 PM 53.6 °F - 26.6 °F 35% 30.14 in 10.0 mi West 13.8 mph 19.6 mph N/A   Clear
5:15 PM 51.8 °F - 26.6 °F 38% 30.14 in 10.0 mi WNW 11.5 mph - N/A   Clear
5:35 PM 51.8 °F - 26.6 °F 38% 30.14 in 10.0 mi West 16.1 mph - N/A   Clear
5:55 PM 50.0 °F - 26.6 °F 40% 30.14 in 10.0 mi West 10.4 mph - N/A   Clear
6:15 PM 48.2 °F - 26.6 °F 43% 30.15 in 10.0 mi West 9.2 mph - N/A   Clear
6:35 PM 44.6 °F 41.4 °F 26.6 °F 49% 30.15 in 10.0 mi West 5.8 mph - N/A   Clear
6:55 PM 44.6 °F 41.4 °F 26.6 °F 49% 30.16 in 10.0 mi West 5.8 mph - N/A   Clear
7:15 PM 42.8 °F 41.1 °F 26.6 °F 53% 30.16 in 10.0 mi West 3.5 mph - N/A   Clear
7:35 PM 39.2 °F - 28.4 °F 65% 30.16 in 10.0 mi Calm Calm - N/A   Clear
7:55 PM 39.2 °F 37.0 °F 28.4 °F 65% 30.16 in 10.0 mi WSW 3.5 mph - N/A   Clear
8:15 PM 37.4 °F - 28.4 °F 70% 30.17 in 10.0 mi Calm Calm - N/A   Clear
8:35 PM 35.6 °F - 26.6 °F 70% 30.16 in 10.0 mi Calm Calm - N/A   Clear
8:55 PM 33.8 °F - 28.4 °F 81% 30.16 in 10.0 mi Calm Calm - N/A   Clear
9:15 PM 33.8 °F - 28.4 °F 81% 30.17 in 10.0 mi Calm Calm - N/A   Clear
9:35 PM 32.0 °F - 26.6 °F 80% 30.17 in 10.0 mi Calm Calm - N/A   Clear
9:55 PM 32.0 °F 28.7 °F 26.6 °F 80% 30.16 in 10.0 mi South 3.5 mph - N/A   Clear
10:15 PM 37.4 °F 32.8 °F 28.4 °F 70% 30.16 in - South 5.8 mph - N/A   Clear
10:55 PM 39.2 °F 37.0 °F 26.6 °F 61% 30.15 in 10.0 mi South 3.5 mph - N/A   Clear
11:15 PM 37.4 °F - 26.6 °F 65% 30.16 in 10.0 mi Calm Calm - N/A   Clear
11:35 PM 35.6 °F - 28.4 °F 75% 30.16 in 10.0 mi Calm Calm - N/A   Clear
11:55 PM 35.6 °F - 26.6 °F 70% 30.15 in 10.0 mi Calm Calm - N/A   Clear